RH
96 93 81 96 81 72 83 93 84 56 59 72 72 73 80 74 75 84 94 94 96 97 89 93 96 95 96 96 96 95 91 88 97
87 70 81 95 80 74 80 81 64 57 58 68 71 72 70 70 72 77 91 92 92 92 91 95 92 96 100 96 95 98 98 98 90
81 74 84 92 92 75 77 70 68 63 57 67 69 71 66 71 64 72 88 90 88 88 93 93 94 95 95 94 93 92 92 93 92
72 76 83 93 86 78 78 66 66 64 60 61 68 69 72 73 72 72 85 87 88 89 91 90 91 92 90 90 91 91 90 90 90
76 81 82 92 88 82 75 67 55 64 62 61 68 67 73 74 76 74 80 89 90 91 91 90 90 91 88 88 89 87 87 87 88
80 74 80 83 87 84 76 67 48 62 63 60 65 67 70 76 74 70 71 88 92 90 88 89 88 88 88 88 89 88 88 88 87
82 82 83 86 85 81 72 61 46 56 62 61 64 64 65 67 65 69 63 92 93 89 86 87 88 88 87 87 86 86 87 87 86
77 86 85 86 86 79 69 57 52 56 61 58 62 62 60 56 54 62 61 86 89 85 84 86 87 86 87 86 84 86 88 87 86
76 76 82 84 82 79 69 52 50 68 69 65 60 60 56 55 55 56 61 74 85 82 81 83 84 86 86 84 85 86 87 88 87
65 68 70 78 80 70 64 51 49 68 72 65 60 58 52 49 50 56 60 67 75 79 78 81 81 83 84 83 82 82 82 84 82
58 61 63 61 67 64 66 67 65 68 68 60 56 53 50 48 46 47 59 67 72 74 77 77 78 79 81 79 76 77 75 75 77
59 55 60 62 66 67 66 67 71 71 68 60 53 52 50 48 48 55 67 72 78 72 74 74 74 75 77 78 72 71 69 71 70
60 52 56 61 66 65 62 67 67 67 66 64 52 51 49 47 48 56 69 71 68 73 68 72 72 70 74 72 71 67 67 63 55
63 54 52 54 60 62 62 63 65 66 64 64 56 47 46 44 48 51 63 69 65 63 67 65 67 69 67 67 66 67 63 52 54
65 63 52 53 57 60 62 63 64 66 64 59 57 49 43 43 47 51 52 58 62 57 52 56 58 55 62 63 62 62 62 62 38
65 65 62 54 55 56 60 62 64 67 67 59 53 50 45 43 45 48 49 51 53 55 53 50 52 50 42 57 60 62 60 56 58
65 65 65 61 56 56 57 61 64 66 67 60 57 64 54 46 45 44 46 47 50 50 51 52 52 50 45 37 50 56 55 57 67
67 67 66 65 59 56 57 59 63 67 69 62 57 84 79 64 49 47 43 44 46 50 49 49 49 47 41 34 32 27 46 65 60
78 71 69 68 65 61 60 60 63 68 72 72 60 55 61 70 64 48 48 44 44 48 49 48 47 47 41 35 33 36 40 37 57
83 92 83 77 71 68 67 68 68 69 73 73 71 66 65 60 61 66 54 48 47 49 48 57 50 45 38 37 40 42 47 60 61
Wind_Speed
11 12 13 17 14 14 15 15 15 16 17 16 17 16 18 16 14 19 18 19 19 17 16 17 19 16 14 14 15 15 15 14 20
13 13 15 17 13 14 14 14 14 14 15 14 14 14 14 15 14 15 16 16 14 13 12 13 13 13 13 12 12 13 13 14 12
14 13 16 16 15 13 12 12 12 12 13 14 13 13 11 13 9 10 14 13 13 12 12 12 13 13 14 14 14 14 14 14 14
12 15 17 16 15 12 11 11 11 12 13 14 13 13 13 11 11 12 12 12 11 11 11 11 11 12 13 13 13 13 14 14 14
13 18 16 14 13 11 10 10 11 11 12 13 13 12 13 10 10 10 10 10 11 11 10 11 11 11 12 12 13 13 13 13 13
14 17 16 15 12 11 10 10 11 11 12 13 14 10 5 9 8 8 7 10 10 10 9 10 10 10 11 11 12 13 13 13 13
16 14 14 13 12 11 10 10 11 12 11 12 12 11 10 10 6 6 6 10 10 9 9 9 10 9 10 10 11 11 11 12 12
16 17 15 14 13 13 12 12 13 12 11 10 12 10 9 10 7 6 5 9 10 10 9 10 9 9 10 9 9 10 10 11 11
17 17 17 16 16 14 13 13 13 14 11 8 9 7 12 11 9 7 6 8 10 10 10 10 9 9 9 9 9 9 9 9 10
18 17 15 18 17 16 14 14 16 14 11 13 10 11 12 10 10 9 9 9 9 10 10 10 9 9 9 9 9 8 8 7 8
15 17 15 15 15 16 14 14 15 14 12 14 13 15 13 12 11 11 12 11 11 10 11 11 10 10 9 8 8 8 8 6 5
15 19 20 14 14 15 15 15 16 18 17 16 14 15 14 14 14 13 15 13 13 12 13 13 12 12 11 10 8 7 6 5 5
18 19 20 18 19 18 17 20 18 20 18 18 18 17 16 15 17 15 16 15 15 15 16 16 15 14 12 11 10 8 7 6 5
22 23 23 22 22 22 22 21 21 20 20 19 17 17 18 17 19 19 19 18 17 16 17 19 18 17 15 14 12 11 8 6 5
26 25 25 25 25 25 25 25 24 22 22 19 19 18 20 20 20 21 22 21 20 19 19 22 22 20 16 15 14 13 11 9 8
28 28 26 27 27 28 27 27 25 24 23 19 17 19 21 24 24 24 24 25 23 22 22 22 23 22 21 17 16 14 12 10 8
29 30 30 29 29 28 29 29 28 26 25 15 5 2 9 24 27 27 28 26 26 27 25 24 24 23 24 23 20 16 13 11 9
32 32 32 32 31 32 33 33 32 27 26 29 12 2 5 3 15 32 31 31 29 30 29 27 26 24 23 23 22 21 16 13 10
25 33 34 34 36 34 35 34 35 32 29 28 35 23 4 4 2 8 26 29 29 29 28 27 25 24 23 22 18 15 15 14 9
29 24 24 28 34 34 33 34 34 37 30 32 26 32 22 12 3 3 4 22 23 24 26 26 25 24 23 20 16 14 12 10 8
Wind_Direction
128 134 138 145 125 114 111 110 106 108 113 112 97 91 97 92 92 97 95 85 86 87 86 80 85 90 85 77 70 72 74 69 65
139 132 139 144 132 123 115 115 112 115 118 116 102 102 100 91 88 95 93 88 83 83 87 87 90 85 79 80 74 69 68 71 76
144 140 142 145 137 127 121 123 120 119 124 124 107 104 113 109 100 101 101 91 87 89 88 85 86 82 81 81 80 79 77 74 75
149 145 150 146 143 140 134 134 135 129 129 131 114 97 117 118 121 114 106 98 97 96 98 96 92 88 86 84 83 83 82 82 80
146 146 155 155 152 149 150 149 151 142 138 137 131 117 106 128 129 122 120 112 109 106 104 101 100 93 90 88 88 84 82 81 82
159 162 165 166 165 164 164 163 160 156 149 147 143 137 132 156 138 128 131 121 119 114 111 108 104 99 93 93 91 91 90 88 86
169 168 176 176 178 178 177 175 168 166 162 161 155 143 144 156 159 149 142 133 130 125 121 118 115 110 107 104 100 97 94 91 87
186 180 191 190 190 189 188 183 179 170 164 168 164 161 170 176 202 179 166 147 143 140 139 134 130 125 121 114 105 103 102 99 94
192 198 202 204 200 200 199 195 184 182 184 176 175 188 182 191 198 203 198 171 156 154 152 150 144 139 134 126 121 115 112 105 98
198 205 212 213 211 212 201 198 191 191 205 196 207 200 195 197 200 206 212 199 179 168 166 165 161 158 154 145 135 128 121 112 104
211 209 212 203 203 204 201 197 194 200 202 208 213 200 197 217 214 219 212 215 210 186 178 180 177 175 168 160 151 144 139 133 119
212 210 213 209 202 208 212 217 223 225 210 214 212 213 215 221 229 221 217 216 222 210 190 191 190 189 183 180 174 168 160 148 138
211 211 212 209 208 211 219 215 223 205 213 216 217 221 225 224 230 223 221 224 225 219 207 199 197 197 195 193 189 186 175 175 168
215 215 215 213 212 215 218 219 223 217 215 219 218 216 220 220 218 232 230 223 230 229 221 214 204 200 200 200 199 196 195 200 203
224 223 220 217 217 219 218 222 223 227 222 218 223 225 228 227 225 224 234 232 227 228 224 221 220 214 205 204 205 203 205 213 224
225 228 227 224 224 225 223 222 223 222 218 213 221 229 229 235 233 231 225 230 233 230 224 228 228 224 219 209 208 210 214 223 225
226 228 228 228 227 229 229 224 223 225 214 201 171 248 248 236 235 234 232 228 226 230 232 231 227 230 230 224 220 217 219 217 216
228 231 231 230 228 231 231 228 225 225 216 214 195 157 227 210 231 231 232 231 229 227 232 232 232 232 233 229 229 232 221 212 216
227 231 233 235 232 232 236 234 230 224 221 217 220 229 172 193 294 242 234 232 234 232 229 233 235 233 232 232 236 235 238 241 230
244 232 232 238 241 235 239 240 234 232 226 222 226 228 235 236 149 253 262 225 232 232 227 230 229 227 224 218 218 222 259 261 265